Location: Unspecified
(44.4377°N, 88.0525°W)
Time: 20:18:26
(UTC-05:00)

Cosmos 1674 - Visible Passes

Search period start: 29 May 2017 00:00
Search period end: 08 June 2017 00:00
Orbit: 499 x 522 km, 82.5° (Epoch: 29 May)

Date Brightness Start Highest point End Pass type
(mag) Time Alt. Az. Time Alt. Az. Time Alt. Az.
29 May 2.8 01:34:08 68° NW 01:34:08 68° NW 01:37:44 10° N visible
30 May 2.8 01:17:39 73° NNE 01:17:39 73° NNE 01:21:12 10° N visible
31 May 3.0 01:01:10 63° NE 01:01:10 63° NE 01:04:37 10° NNE visible
01 Jun 3.3 00:44:40 50° ENE 00:44:40 50° ENE 00:48:00 10° NNE visible
01 Jun 5.1 02:19:34 12° WNW 02:20:12 12° WNW 02:21:45 10° NW visible
02 Jun 3.6 00:28:09 40° ENE 00:28:09 40° ENE 00:31:21 10° NNE visible
02 Jun 4.9 02:03:03 15° WNW 02:03:33 15° WNW 02:05:47 10° NNW visible
03 Jun 3.9 00:11:38 32° ENE 00:11:38 32° ENE 00:14:40 10° NNE visible
03 Jun 4.7 01:46:32 18° W 01:46:54 18° WNW 01:49:37 10° NNW visible
03 Jun 4.2 23:55:05 26° E 23:55:05 26° E 23:57:55 10° NNE visible
04 Jun 4.5 01:29:59 22° W 01:30:16 22° WNW 01:33:20 10° NNW visible
04 Jun 4.5 23:38:32 21° E 23:38:32 21° E 23:41:07 10° NE visible
05 Jun 4.2 01:13:26 27° W 01:13:38 27° WNW 01:16:58 10° NNW visible
05 Jun 4.7 23:21:58 17° E 23:21:58 17° E 23:24:13 10° NE visible
06 Jun 3.8 00:56:51 34° W 00:57:01 34° WNW 01:00:34 10° N visible
06 Jun 4.9 23:05:23 14° E 23:05:23 14° E 23:07:09 10° NE visible
07 Jun 3.4 00:40:16 43° W 00:40:25 43° WNW 00:44:07 10° N visible
07 Jun 5.1 22:48:47 11° E 22:48:47 11° E 22:49:40 10° ENE visible
